www.pogodaiklimat.ru

Погода и климат >> Архив погоды >> Колумбия >> Барранкилья


ПОГОДА в Барранкилье

  • Прогноз погоды в Барранкилье
  • Монитор погоды в Барранкилье

АРХИВ ПОГОДЫ в Барранкилье

Время (UTC), дата Ветер
(напр.,м/с)
 
Видим.   Явления Облачность Т
(С)
Тd
(С)
f
(%)
Тe
(С)
Тes
(С)
Комфортность P
(гПа)
Po
(гПа)
Тmin
(С)
Tmax
(С)
R
(мм)
R24
(мм)
S
(см)
09 14.04 нст 1 10 км мгла ясно +25.8 +24.1 90 +36 +36 очень
душно
1007.4 1003.9
12 14.04 С 2 4000 м дымка 8/5 240 м
[St Ci sp]
+26.0 +24.8 93 +37 +38 очень
душно
1009.5 1006.0 +24.7
15 14.04 СЗ 1 8000 м мгла 6/5 360 м
[St Cs]
+30.8 +24.2 68 +43 +52 опасность
перегрева
1010.8 1007.3
18 14.04 С 6 12 км мгла 6/3 540 м
[Cu hum Ci fib]
+33.4 +23.9 58 +45 +50 опасность
перегрева
1008.5 1005.0
21 14.04 С 8 12 км мгла 6/3 450 м
[Cb cap Ci fib]
+30.3 +23.5 67 +41 +42 опасность
перегрева
1006.5 1003.0
00 15.04 С 2 12 км мгла 8/4 360 м
[St Cs]
+27.7 +24.0 80 +38 +38 очень
душно
1009.2 1005.7 +34.1
03 15.04 С 3 12 км мгла 9/3 450 м
[St Ac trans Cs]
+27.4 +24.3 83 +38 +38 очень
душно
1010.1 1006.6
06 15.04 ЮВ 2 10 км мгла 6/3 450 м
[St Ac trans Cs]
+26.3 +24.5 90 +37 +37 очень
душно
1008.9 1005.4
09 15.04 СВ 1 6000 м туман на расстоянии 9/6 360 м
[St Cs]
+25.4 +24.2 93 +35 +35 очень
душно
1008.9 1005.4
12 15.04 штиль 0 4000 м дымка {туман} 10/1 300 м
[St Cs]
+25.8 +24.8 94 +37 +38 очень
душно
1010.9 1007.4 +24.7
15 15.04 С 3 10 км мгла {туман} 10/5 360 м
[St Cs]
+29.4 +24.0 73 +41 +46 опасность
перегрева
1012.3 1008.8
18 15.04 С 5 7000 м мгла 8/4 450 м
[Cu hum Cs]
+32.5 +24.0 61 +44 +50 опасность
перегрева
1010.1 1006.6
21 15.04 С 6 7000 м мгла 4/0
[Cs]
+29.8 +23.5 69 +40 +42 очень
душно
1007.8 1004.3
00 16.04 С 10 10 км мгла 8/1 450 м
[Cb cap Cs]
+27.0 +24.3 85 +38 +38 очень
душно
1009.4 1005.9 +32.8
06 16.04 С 8 10 км мгла 4/4 360 м
[St]
+26.5 +24.2 87 +37 +37 очень
душно
1010.6 1007.1
09 16.04 С 5 10 км мгла 4/4 360 м
[St]
+26.5 +24.2 87 +37 +37 очень
душно
1009.4 1005.9
12 16.04 С 4 8000 м мгла 1/1 360 м
[St]
+26.7 +23.8 84 +37 +38 очень
душно
1011.1 1007.6 +26.1
15 16.04 СВ 6 10 км мгла ясно +30.8 +22.3 61 +40 +47 очень
душно
1012.5 1009.0
18 16.04 С 7 12 км мгла 3/0
[Ci sp]
+31.8 +23.5 62 +43 +48 опасность
перегрева
1010.1 1006.6
21 16.04 С 6 12 км мгла 3/0
[Ci sp]
+29.5 +23.8 71 +40 +43 очень
душно
1007.2 1003.7
00 17.04 С 7 10 км мгла 1/1 450 м
[Cb cap]
+27.1 +23.6 81 +37 +37 очень
душно
1007.8 1004.3 +32.3
03 17.04 С 7 10 км мгла ясно +27.1 +23.4 80 +37 +37 очень
душно
1009.4 1005.9
09 17.04 С 4 10 км мгла ясно +26.7 +23.0 80 +36 +36 очень
душно
1007.4 1003.9
12 17.04 С 3 8000 м мгла 4/4 360 м
[St Ci sp]
+27.3 +23.0 77 +36 +37 очень
душно
1009.2 1005.7 +26.4
15 17.04 С 6 10 км мгла 1/1 450 м
[Cu hum]
+31.1 +23.0 62 +41 +47 опасность
перегрева
1010.4 1006.9
18 17.04 С 6 10 км мгла 3/3 450 м
[St]
+33.3 +22.8 54 +43 +49 опасность
перегрева
1008.2 1004.8
21 17.04 С 12 10 км мгла 3/3 450 м
[Cb cap]
+29.9 +22.9 66 +40 +40 очень
душно
1005.8 1002.3
00 18.04 С 5 10 км мгла 8/4 450 м
[St Cs]
+27.4 +23.4 79 +37 +37 очень
душно
1007.4 1003.9 +33.7
03 18.04 С 7 10 км мгла 8/3 450 м
[St Cs]
+27.0 +23.3 80 +36 +36 очень
душно
1009.1 1005.6
06 18.04 С 5 10 км мгла 6/1 450 м
[St Cs]
+26.4 +23.8 86 +36 +36 очень
душно
1007.8 1004.3
09 18.04 В 2 10 км мгла 6/5 450 м
[St Cs]
+26.0 +23.8 88 +36 +36 очень
душно
1007.5 1004.0
12 18.04 С 1 10 км мгла {туман} 10/5 360 м
[St Cs]
+26.6 +23.9 85 +37 +37 очень
душно
1009.9 1006.4 +25.3
15 18.04 С 5 10 км мгла 6/6 360 м
[St Ci sp]
+28.9 +23.6 73 +39 +43 очень
душно
1011.1 1007.6
18 18.04 С 4 10 км мгла 10/3 450 м
[Cu hum Cs]
+30.2 +23.1 66 +40 +48 очень
душно
1009.4 1005.9
21 18.04 С 6 10 км мгла 8/1 450 м
[Cu hum Cs]
+30.6 +22.9 64 +41 +42 опасность
перегрева
1006.8 1003.3
00 19.04 С 3 10 км мгла 5/1 450 м
[Cb cap Cs]
+27.1 +23.5 81 +37 +37 очень
душно
1008.1 1004.6 +31.2
03 19.04 СВ 3 10 км мгла ясно +26.9 +23.3 81 +36 +36 очень
душно
1009.8 1006.3
06 19.04 С 2 10 км мгла ясно +26.4 +24.1 87 +37 +37 очень
душно
1009.3 1005.8
09 19.04 С 3 10 км мгла ясно +26.2 +23.2 84 +35 +35 очень
душно
1008.7 1005.2
12 19.04 С 3 10 км мгла 4/4 360 м
[]
+26.9 +23.3 81 +36 +37 очень
душно
1009.8 1006.3 +26.0
15 19.04 В 3 10 км мгла 1/1 450 м
[Cu hum]
+31.1 +23.0 62 +41 +54 опасность
перегрева
1011.5 1008.0
18 19.04 СВ 8 12 км мгла 5/3 450 м
[Sc Cs]
+33.0 +23.2 56 +43 +46 опасность
перегрева
1009.5 1006.0
21 19.04 С 9 12 км мгла 6/3 450 м
[Cu hum Cs]
+30.0 +23.3 67 +40 +41 очень
душно
1006.7 1003.2
00 20.04 С 6 7000 м дым 5/4 600 м
[Sc Ci sp]
+27.3 +24.2 83 +38 +38 очень
душно
1010.8 1005.3 +33.5
03 20.04 нст 1 10 км мгла 4/1 600 м
[St Ci sp]
+26.6 +24.0 86 +37 +37 очень
душно
1010.2 1006.7
06 20.04 штиль 0 10 км мгла 8/1 450 м
[St Ac trans Ci sp]
+26.2 +23.7 86 +36 +36 очень
душно
1009.9 1006.4
09 20.04 нст 1 10 км мгла 6/1 450 м
[St Ac trans Cs]
+25.6 +23.7 89 +35 +35 очень
душно
1009.8 1006.3
12 20.04 СВ 3 8000 м мгла {туман} 1/1 450 м
[St]
+26.7 +24.1 86 +37 +39 очень
душно
1011.3 1007.8 +25.3
15 20.04 СВ 2 10 км мгла 4/4 450 м
[St]
+32.1 +23.8 62 +44 +54 опасность
перегрева
1012.5 1009.0
18 20.04 СВ 6 12 км мгла 6/5 360 м
[Cu med, cong Cs]
+34.4 +24.5 56 +47 +51 опасность
перегрева
1010.2 1006.7
21 20.04 ЮЗ 3 4000 м слаб. дождь {гроза} 9/4 300 м
[Cb calv Ac und Ci sp]
+24.7 +23.3 92 +33 +35 очень
душно
1009.9 1006.4
00 21.04 С 3 10 км слаб. морось {гроза} 10/4 360 м
[St Ac und Cc]
+26.8 +25.1 90 +39 +39 очень
душно
1010.8 1007.3 +34.8
03 21.04 С 3 10 км мгла 4/4 360 м
[St]
+26.3 +24.3 89 +37 +37 очень
душно
1012.5 1009.0
06 21.04 штиль 0 10 км мгла 3/3 360 м
[St]
+25.5 +24.3 93 +35 +35 очень
душно
1011.6 1008.1

 

Местоположение метеостанции Барранкилья (Колумбия): широта 10.88 долгота -74.78 высота над уровнем моря 30 м.

В архиве по умолчанию представлена погода в Барранкилье за последнюю неделю. Архивные данные за месяц целиком и за предыдущие месяцы, начиная с января 2011 года, Вы можете получить, выбрав интересующий диапазон дат из раскрывающегося списка и нажав кнопку "Ввод!".


*Определитесь, кто Вы:
робот инопланетянин человек

Внимание! Время в таблицах - всемирное. Для получения местного времени необходимо прибавить поправку, которая равна -5 ч.

Смотрите также архив погоды в соседних городах и на ближайших метеорологических станциях:

Погода в Санта-Марте (Колумбия) (66 км)
Погода в Картахене (Колумбия) (93 км)
Погода в Вальедупаре (Колумбия) (175 км)
Погода в Риоаче (Колумбия) (214 км)
Погода в Монтерии (Колумбия) (257 км)
Погода в Маракайбо аэропорту (Венесуэла) (335 км)
Погода в Маракайбо (Венесуэла) (344 км)
Погода в Апартадо (Колумбия) (400 км)
Погода в Кукуте (Колумбия) (412 км)
Погода в Сан-Антонио-дель-Тачира (Венесуэла) (423 км)

Пояснения к столбцам:

Ветер - указаны скорость ветра в м/с - средняя за 10 мин, порывы в срок и между сроками (в фигурных скобках) и направление, откуда дует ветер: С - северный, СВ - северо-восточный, В - восточный, ЮВ - юго-восточный, Ю - южный, ЮЗ - юго-западный, З - западный, СЗ - северо-западный.
Видимость - горизонтальная дальность видимости в метрах или километрах. При видимости от 1 до 10 км при отсутствии осадков обычно наблюдается дымка, при ухудшении видимости до 1 км и менее - туман. В сухую погоду видимость может ухудшаться дымом, пылью или мглою.
Явления - указаны атмосферные явления, наблюдавшиеся в срок или в последний час перед сроком; фигурными скобками обозначены явления, наблюдавшиеся между сроками (за 1-3 часа до срока); квадратными скобками обозначены град или гололедные отложения с указанием их диаметра в мм.
Облачность - указаны через наклонную черту общая и нижняя облачность в баллах и высота нижней границы облаков в метрах; квадратными скобками обозначены формы облаков: Ci - перистые, Cs - перисто-слоистые, Cc - перисто-кучевые, Ac - высококучевые, As - высокослоистые, Sc - слоисто-кучевые, Ns - слоисто-дождевые, Cu - кучевые, Cb - кучево-дождевые. Подробнее классификацию облаков см. в Атласе облаков (PDF).
T - Температура воздуха - температура, измеренная на высоте 2 м над землей.
Td - Температура точки росы - температура, при понижении до которой содержащийся в воздухе водяной пар достигнет насыщения.
f - Относительная влажность воздуха - влажноcть воздуха, измеренная на высоте 2 м над землей.
Te - Эффективная температура - температура, которую ощущает одетый по сезону человек в тени. Характеристика душности погоды. При расчете учитывается влияние влажности воздуха и скорости ветра на теплоощущения человека.
Tes - Эффективная температура на солнце - температура, которую ощущает человек, с поправкой на солнечный нагрев. Характеристика знойности погоды. Зависит от высоты солнца над горизонтом, облачности и скорости ветра. Ночью, в пасмурную погоду, а также при ветре 12 м/с и более поправка равна нулю.
P - Атмосферное давление - приведенное к уровню моря атмосферное давление.
Po - Атмосферное давление - измеренное на уровне метеостанции атмосферное давление.
Tmin - Минимальная температура - минимум температуры воздуха на высоте 2 м над землей.
Tmax - Максимальная температура - максимум температуры воздуха на высоте 2 м над землей.
R - Количество осадков - Количество выпавших осадков за период времени, мм. При наведении курсора мыши на число - период времени, за который выпало указанное количество осадков.
R24 - Количество осадков - Количество выпавших осадков за 24 часа, мм.
S - Снежный покров - Высота снежного покрова, см. При наведении курсора мыши на число - состояние снежного покрова и степень покрытия местности в баллах.